Location: Godiavel Galaoual
(15.2485°N, 12.6604°W)
Time: 04:40:27
(UTC+00:00)

N. Korean satellite - Visible Passes

Search period start: 26 May 2020 00:00
Search period end: 05 June 2020 00:00
Orbit: 455 x 505 km, 97.2° (Epoch: 25 May)

Date Brightness Start Highest point End Pass type
(mag) Time Alt. Az. Time Alt. Az. Time Alt. Az.
28 May 8.4 05:52:45 10° NNE 05:56:09 34° E 05:59:31 10° SSE visible
29 May 9.6 05:28:26 10° ENE 05:30:25 14° E 05:32:24 10° SE visible
01 Jun 9.0 05:43:32 10° NE 05:46:34 24° E 05:49:35 10° SSE visible
